Theta_e
313 311 310 310 310 311 313 313 314 315 316 318 318 317 317 318 319 323 323 328 327 328 330 339 336 335 334 333 330 328 326 323 326 328 327 327 327 326 326 325 323 321 319 316
312 311 311 312 312 312 312 312 313 313 314 316 316 318 320 318 318 318 325 322 323 320 331 335 333 331 330 330 330 328 326 323 324 327 326 327 327 326 325 324 324 322 320 319
310 312 314 313 313 314 312 312 312 313 314 314 316 316 318 320 320 322 320 324 323 321 329 333 331 330 329 328 329 328 326 325 325 327 327 326 326 326 325 324 324 323 322 320
312 313 314 315 315 315 314 315 314 314 313 313 313 314 313 319 322 321 321 320 325 320 325 331 331 329 327 328 328 327 326 326 325 327 328 327 327 326 326 325 324 323 323 321
315 316 317 316 316 316 316 316 316 316 315 314 315 311 312 316 318 320 319 319 321 322 323 327 329 328 328 327 328 327 327 327 326 325 329 329 328 327 326 325 324 324 323 322
314 315 316 316 317 316 317 316 316 313 312 314 314 312 312 312 316 317 317 318 319 320 321 323 327 328 327 327 328 328 328 328 326 325 328 330 329 327 325 324 326 325 323 323
315 315 316 317 317 317 317 313 315 315 315 317 315 315 312 314 315 316 317 317 318 318 319 321 325 327 327 327 328 329 329 329 327 326 327 330 327 325 327 327 326 323 324 323
317 317 317 317 316 316 315 313 316 317 317 317 317 319 318 315 315 316 316 318 319 316 317 321 324 327 327 328 328 330 329 329 329 328 329 330 328 326 328 325 324 324 324 323
322 323 320 322 318 316 316 316 314 316 317 318 318 318 318 320 318 318 318 318 318 315 315 320 324 327 328 328 328 330 330 329 328 329 331 331 328 327 327 326 325 325 323 323
312 321 322 323 322 322 316 315 318 315 318 318 317 319 320 318 319 320 319 317 317 317 315 316 324 326 328 329 329 330 331 330 329 328 329 331 330 328 327 327 326 323 324 324
309 314 320 319 322 320 321 321 321 318 316 318 317 318 316 324 320 320 320 320 317 316 316 318 318 322 326 329 330 331 332 331 331 330 328 328 329 328 328 327 325 325 325 324
307 310 313 314 314 316 322 314 319 326 327 323 319 319 320 322 323 322 322 321 317 316 317 319 319 320 322 328 330 331 331 332 331 331 330 329 329 328 327 326 326 325 324 323
306 311 311 312 313 310 311 311 312 317 325 325 324 321 322 323 320 319 321 322 321 321 320 318 317 322 323 327 330 331 331 331 331 331 331 330 329 329 328 327 326 325 324 323
306 307 311 314 311 306 307 307 309 314 319 325 326 323 323 323 321 318 318 323 323 322 321 320 320 319 326 329 330 330 331 331 331 331 331 330 329 328 328 327 326 325 324 323
303 305 307 305 306 303 304 304 305 307 311 322 319 319 323 321 320 318 318 320 324 323 321 319 319 320 319 323 328 330 330 331 331 330 330 330 329 328 327 327 326 325 324 323
301 300 303 304 303 302 302 302 302 305 309 310 310 317 316 318 319 318 317 316 316 323 323 320 319 318 318 320 324 325 325 329 330 329 329 328 328 328 327 327 326 324 323 322
297 298 298 301 301 301 302 301 304 303 305 309 311 309 309 311 318 318 318 314 314 317 323 321 319 320 320 319 321 321 324 324 323 327 327 327 327 327 327 326 325 323 321 318
299 297 297 300 300 303 301 303 302 303 305 306 307 307 305 307 311 315 316 315 314 314 317 320 319 321 321 320 319 318 324 325 323 323 325 326 327 327 326 323 321 318 314 313
297 298 298 296 301 302 302 302 302 302 302 304 303 303 307 310 309 313 314 314 311 312 313 317 321 321 321 320 319 319 323 323 323 323 324 325 324 321 319 316 314 313 312 311
301 300 299 300 306 305 301 302 302 302 303 303 303 308 310 312 311 316 313 312 313 311 315 315 316 315 318 318 321 322 323 322 320 319 318 318 317 316 314 313 312 311 310 308
303 304 302 297 301 301 304 304 304 305 305 309 308 308 309 310 312 313 311 310 312 312 312 315 315 314 316 318 321 323 321 319 316 317 317 317 315 314 312 311 310 309 308 308
304 303 299 300 300 303 304 304 305 303 304 307 308 307 307 308 308 310 310 310 312 311 312 313 314 315 317 321 319 322 319 317 317 314 313 312 312 312 311 309 308 308 307 306
305 304 304 304 300 299 301 302 302 302 303 304 304 304 304 306 306 307 306 309 309 311 310 312 314 315 316 320 321 317 313 313 313 313 311 311 310 309 308 308 307 306 305 304
303 302 304 304 303 302 302 302 302 301 302 303 303 303 303 304 304 305 306 305 308 310 310 310 314 315 316 319 320 315 312 312 312 311 310 309 308 308 306 306 305 304 303 302
304 303 303 304 303 303 302 302 301 302 302 303 303 303 303 303 304 305 306 306 307 309 310 310 314 315 315 317 316 312 311 312 311 309 308 307 305 304 304 303 302 302 301 301
303 303 303 303 301 301 301 301 301 302 302 302 304 304 304 303 303 304 304 305 306 308 308 312 314 314 316 313 310 309 310 310 308 306 304 303 303 302 302 301 301 301 301 301
Wind_Speed
5 3 6 9 7 7 4 6 8 7 9 4 9 8 10 7 9 11 8 12 13 16 12 28 35 40 43 44 42 39 36 31 29 28 28 26 24 19 16 13 8 5 2 3
4 8 8 8 7 8 7 8 18 8 10 6 11 12 14 8 7 9 16 10 9 8 14 21 33 37 43 48 45 41 35 31 30 30 29 27 24 20 17 14 10 6 2 1
8 6 8 8 11 10 11 12 9 12 10 6 7 8 16 9 9 26 14 17 13 16 19 18 22 36 38 41 48 42 37 36 33 31 28 26 22 19 18 17 13 9 5 2
9 6 12 13 10 10 15 10 14 16 5 9 8 9 6 7 18 24 25 19 20 15 22 23 23 28 35 39 45 43 41 41 37 35 32 31 30 25 20 21 16 12 8 4
12 7 9 11 13 9 14 16 18 8 6 1 3 3 8 2 8 20 22 18 21 20 23 22 24 35 38 37 43 48 45 44 42 40 36 33 32 30 23 20 16 13 10 7
11 6 8 8 10 7 8 7 0 3 4 0 12 8 6 5 8 6 7 14 17 19 20 23 34 36 35 34 35 41 48 47 45 44 40 34 34 33 22 22 19 16 12 8
5 10 9 9 11 10 3 4 4 3 1 8 4 2 8 7 9 9 10 10 16 16 19 22 22 21 29 33 35 37 43 40 46 44 42 37 32 29 24 24 22 19 14 10
4 10 5 5 9 10 8 8 6 8 5 12 3 4 14 9 10 9 10 12 11 13 17 23 27 26 35 37 38 38 39 37 42 44 40 35 31 28 25 23 23 19 14 12
6 6 13 13 7 5 11 5 9 5 2 1 4 7 7 2 8 8 14 11 12 8 15 23 26 32 37 39 40 41 39 36 39 43 36 33 31 30 26 25 22 17 13 12
8 7 7 9 7 3 3 4 4 2 6 6 3 4 13 9 12 9 12 11 8 7 9 10 19 24 34 35 36 35 36 39 43 43 42 34 33 31 28 26 22 17 15 14
11 1 8 10 5 12 8 7 5 3 4 8 3 7 4 2 7 10 7 5 7 8 8 9 9 18 25 29 32 31 31 32 35 39 40 40 35 30 26 24 21 18 15 15
6 3 4 7 18 11 2 13 9 3 6 3 3 8 10 17 17 19 7 4 9 8 7 8 7 14 21 27 31 32 32 34 40 39 37 35 33 29 26 23 21 18 18 16
7 4 6 11 4 11 8 19 18 10 2 3 1 4 12 16 19 18 18 14 13 15 15 13 10 6 15 21 27 29 31 31 33 36 36 33 30 28 27 26 22 21 18 16
5 2 2 3 3 9 9 16 15 9 2 2 10 10 12 9 12 16 18 17 12 14 15 14 13 11 6 22 25 25 26 32 36 36 36 34 32 31 30 26 24 22 19 18
4 4 4 8 12 15 15 15 14 16 12 5 5 7 2 3 5 5 8 11 12 9 13 12 12 11 14 13 12 23 29 33 37 36 36 36 36 35 32 29 27 24 22 20
3 5 5 12 12 14 18 19 13 15 15 10 6 4 6 6 4 8 7 10 9 10 5 9 7 10 10 12 13 5 10 34 42 41 41 39 38 38 35 31 27 24 20 18
5 3 2 13 10 13 14 10 6 13 15 8 5 1 9 9 7 2 4 8 11 3 6 4 6 6 10 14 15 18 13 16 23 36 36 33 35 34 32 27 23 19 17 13
7 4 4 9 5 11 9 8 14 16 15 17 12 3 8 5 8 5 3 5 6 5 8 1 3 9 6 7 14 20 26 7 25 25 29 29 29 26 22 20 16 13 10 8
8 4 2 2 4 13 16 13 13 12 17 6 12 15 5 6 2 1 5 9 5 2 5 8 9 8 9 10 11 11 17 10 13 18 19 20 23 21 17 14 10 7 7 10
2 5 5 2 5 7 11 6 8 14 15 13 10 2 3 3 2 3 3 6 10 9 9 13 12 13 15 11 6 3 13 15 19 24 25 24 20 16 12 6 5 6 10 13
2 2 5 5 6 8 7 10 7 5 6 2 4 3 5 1 2 4 4 2 2 5 9 14 13 11 11 9 8 4 13 12 16 20 18 15 11 7 5 2 7 10 12 13
6 4 4 3 4 10 2 2 6 4 3 5 4 4 5 4 3 6 7 7 2 2 4 9 9 10 10 5 13 12 15 22 21 17 16 13 8 3 3 6 7 7 10 13
6 11 5 8 7 7 7 8 9 7 9 6 6 7 7 7 6 5 7 7 6 6 3 4 9 9 9 4 11 21 22 19 19 17 12 8 5 4 3 5 5 6 8 10
7 13 10 11 20 24 18 16 12 8 12 8 10 12 8 8 8 8 7 7 5 7 4 3 2 8 6 2 5 18 19 17 16 13 8 6 4 2 2 1 3 6 8 15
9 6 12 15 18 16 17 15 15 18 15 8 11 12 12 9 7 9 6 6 7 10 7 3 8 6 2 7 13 16 17 14 12 10 8 7 7 4 5 6 8 10 13 16
5 15 9 11 13 8 12 11 9 12 13 10 8 8 11 10 10 8 7 11 11 11 8 9 8 7 8 20 20 17 16 13 14 14 11 8 9 9 9 10 12 13 15 18
Wind_Direction
221 155 213 233 220 195 237 256 260 260 264 254 249 235 250 202 184 177 216 203 184 174 163 161 155 157 160 166 166 164 161 162 161 161 159 160 160 166 171 175 179 178 103 55
322 233 228 226 232 244 244 248 263 285 259 179 262 261 274 227 186 184 195 221 218 139 157 160 160 162 166 168 170 169 166 166 173 176 177 176 171 175 181 181 186 192 189 11
197 233 228 221 244 243 246 238 259 244 272 231 216 265 254 232 168 239 203 207 200 167 168 171 168 172 169 170 173 173 172 174 178 183 180 179 177 179 181 188 193 200 205 249
235 230 238 248 243 227 254 243 239 246 236 252 152 258 269 240 219 210 221 197 204 182 178 177 178 175 177 177 174 177 177 176 180 185 186 184 182 180 196 197 201 202 215 255
239 239 260 259 249 242 251 254 238 202 193 171 233 121 258 197 242 225 220 191 196 192 183 184 183 181 183 172 175 179 181 180 180 182 190 193 192 193 197 198 204 208 217 244
231 214 219 238 262 252 265 273 108 77 116 347 252 178 244 215 223 261 224 202 195 190 191 190 187 183 179 177 173 174 178 183 184 185 188 194 197 191 190 196 198 204 212 236
235 234 244 253 272 282 229 68 277 306 353 224 241 204 219 233 238 225 252 241 205 200 185 188 183 182 179 176 177 177 177 181 185 190 191 193 192 194 197 191 195 198 206 220
301 266 201 222 199 242 237 170 178 216 201 259 108 218 263 220 244 248 236 251 242 206 195 190 183 181 180 181 180 179 181 180 184 191 195 194 195 196 195 196 196 203 220 217
343 285 324 309 296 165 273 211 198 165 234 26 207 276 282 353 315 271 260 226 230 211 192 198 183 179 181 183 182 179 183 183 183 188 189 192 195 197 194 192 198 214 221 216
344 297 304 334 331 355 218 244 231 347 181 241 254 207 255 343 302 301 308 216 192 143 155 170 180 179 184 184 181 181 181 182 185 189 193 188 197 203 201 202 210 221 225 228
5 20 310 344 352 15 346 347 322 326 145 223 210 253 204 269 334 319 21 358 113 96 99 124 150 169 171 169 170 174 176 176 182 193 197 198 201 205 207 214 218 219 222 241
344 286 303 284 294 329 105 23 9 87 297 7 181 246 38 23 15 17 311 331 34 43 92 113 116 150 163 162 168 171 174 177 188 192 196 201 206 206 211 214 216 225 237 246
337 4 323 318 12 27 14 351 338 320 335 207 120 256 30 31 23 13 21 13 61 62 44 34 10 105 144 157 165 169 173 175 179 190 193 203 206 204 208 212 218 225 236 247
38 32 55 288 331 316 321 331 329 312 293 266 239 302 4 34 29 5 17 1 24 54 56 53 35 29 76 144 151 162 168 172 182 190 196 204 206 209 210 214 220 226 233 243
123 207 223 273 280 301 301 308 322 307 294 237 305 305 247 35 67 44 13 4 359 44 46 48 52 44 31 71 136 162 168 179 188 191 199 207 209 210 213 216 220 222 228 243
187 264 262 279 290 288 290 296 294 270 285 273 278 274 1 313 5 56 28 352 352 343 50 87 56 65 51 26 66 114 214 189 191 193 202 208 209 211 214 215 215 221 233 242
190 195 241 279 278 284 284 257 282 299 292 305 280 67 7 10 351 28 60 360 312 318 262 114 96 102 74 29 21 32 19 229 218 196 203 206 211 212 214 213 209 215 230 239
229 170 171 272 278 262 251 209 244 258 264 275 277 17 334 321 323 228 352 118 357 354 22 332 178 105 94 56 8 12 5 240 210 212 198 203 206 206 191 190 202 206 205 233
201 156 254 203 230 267 284 252 242 241 261 260 294 300 323 308 254 344 41 16 327 330 62 30 62 95 86 39 43 7 22 9 188 167 170 162 155 152 163 173 192 220 261 290
257 171 161 158 250 264 248 269 257 256 267 260 257 225 346 300 184 238 289 75 347 359 57 56 44 44 49 46 341 132 118 108 105 117 125 134 142 152 159 175 225 275 302 309
204 252 204 211 234 266 258 246 264 236 246 176 173 190 121 90 260 244 246 267 37 325 53 78 68 46 33 40 35 182 146 132 142 134 140 144 153 162 172 220 313 315 313 314
192 187 212 214 195 268 172 353 181 215 287 184 186 194 163 201 271 271 230 248 233 328 12 81 76 51 48 55 148 174 183 162 150 154 149 146 140 120 346 326 296 299 311 315
244 214 233 212 216 222 208 190 255 237 235 200 232 244 213 189 237 229 265 230 245 220 230 138 124 85 58 87 186 171 159 154 141 149 141 120 101 57 2 272 272 305 327 337
247 243 246 248 245 253 264 265 253 236 241 240 228 235 201 206 225 236 221 267 228 216 224 327 117 100 92 185 181 160 152 153 148 137 118 77 66 139 164 252 3 1 358 342
255 270 250 252 262 265 260 247 254 262 258 229 233 225 221 207 222 224 226 221 227 223 223 216 159 127 84 190 177 160 152 159 134 125 140 158 143 116 94 60 36 9 343 336
205 250 241 253 251 224 256 245 240 254 261 264 232 240 228 200 217 222 222 202 211 218 233 187 174 151 151 164 159 159 156 151 147 132 126 108 97 75 50 29 359 339 330 323